TimeAST,TemperatureF,Dew PointF,Humidity,Sea Level PressureIn,VisibilityMPH,Wind Direction,Wind SpeedMPH,Gust SpeedMPH,PrecipitationIn,Events,Conditions,WindDirDegrees,DateUTC
12:00 AM,37.4,35.6,93,29.89,12.0,SW,11.5,19.6,N/A,,Overcast,230,2013-11-12 04:00:00
12:23 AM,35.6,35.6,100,29.89,12.0,WSW,13.8,20.7,N/A,,Overcast,240,2013-11-12 04:23:00
1:00 AM,35.6,33.8,93,29.89,12.0,WSW,12.7,-,N/A,,Overcast,240,2013-11-12 05:00:00
1:33 AM,35.6,33.8,93,29.90,15.0,WSW,10.4,-,N/A,,Overcast,240,2013-11-12 05:33:00
2:00 AM,36,33,86,29.90,15,SW,9.2,,,,Partly Cloudy,230,2013-11-12 06:00:00
2:00 AM,35.6,33.8,93,29.90,15.0,SW,9.2,-,N/A,,Overcast,220,2013-11-12 06:00:00
3:00 AM,35.6,32.0,87,29.88,15.0,SW,8.1,-,N/A,,Mostly Cloudy,230,2013-11-12 07:00:00
4:00 AM,35.6,32.0,87,29.88,15.0,SSW,5.8,-,N/A,,Mostly Cloudy,200,2013-11-12 08:00:00
5:00 AM,37.4,33.8,87,29.87,15.0,South,8.1,-,N/A,,Overcast,190,2013-11-12 09:00:00
6:00 AM,39.2,35.6,87,29.85,15.0,South,10.4,-,N/A,,Overcast,170,2013-11-12 10:00:00
6:35 AM,39.2,35.6,87,29.84,15.0,South,11.5,-,N/A,Rain,Light Rain,180,2013-11-12 10:35:00
7:00 AM,39.2,35.6,87,29.83,10.0,South,11.5,-,N/A,Rain,Light Rain,170,2013-11-12 11:00:00
8:00 AM,39,37,90,29.83,6,South,16.1,,,Rain,Light Rain,180,2013-11-12 12:00:00
8:00 AM,39.2,37.4,93,29.83,6.0,South,18.4,-,N/A,Rain,Light Rain,180,2013-11-12 12:00:00
8:21 AM,39.2,37.4,93,29.82,5.0,South,16.1,26.5,N/A,Rain,Light Rain,180,2013-11-12 12:21:00
8:34 AM,39.2,37.4,93,29.81,5.0,South,15.0,25.3,N/A,Rain,Light Rain,170,2013-11-12 12:34:00
9:00 AM,39.2,37.4,93,29.80,5.0,South,15.0,23.0,N/A,Rain,Light Rain,170,2013-11-12 13:00:00
10:00 AM,41.0,39.2,93,29.78,10.0,SSW,15.0,-,N/A,Rain,Light Rain,200,2013-11-12 14:00:00
11:00 AM,42.8,39.2,87,29.76,12.0,SW,11.5,20.7,N/A,Rain,Light Rain Showers,220,2013-11-12 15:00:00
12:00 PM,41.0,37.4,87,29.75,12.0,WSW,11.5,17.3,N/A,Rain,Light Rain Showers,250,2013-11-12 16:00:00
12:27 PM,41.0,37.4,87,29.75,8.0,WSW,12.7,-,N/A,Rain,Light Rain Showers,250,2013-11-12 16:27:00
1:00 PM,37.4,35.6,93,29.77,10.0,West,12.7,23.0,N/A,Rain,Light Rain Showers,270,2013-11-12 17:00:00
1:17 PM,35.6,33.8,93,29.78,5.0,West,17.3,-,N/A,Rain,Light Rain Showers,270,2013-11-12 17:17:00
1:37 PM,35.6,33.8,93,29.78,4.0,West,12.7,19.6,N/A,Snow,Light Snow Showers,270,2013-11-12 17:37:00
2:00 PM,35,33,91,29.79,3,West,10.4,,,Snow,Light Snow Showers,270,2013-11-12 18:00:00
2:00 PM,33.8,33.8,100,29.79,3.0,West,8.1,17.3,N/A,Snow,Light Snow Showers,280,2013-11-12 18:00:00
2:06 PM,33.8,32.0,93,29.79,2.5,West,8.1,-,N/A,Snow,Light Snow Showers,280,2013-11-12 18:06:00
3:00 PM,33.8,32.0,93,29.81,2.0,West,6.9,-,N/A,Snow,Light Snow Showers,270,2013-11-12 19:00:00
3:34 PM,33.8,32.0,93,29.81,8.0,WSW,8.1,-,N/A,Snow,Light Snow Showers,240,2013-11-12 19:34:00
4:00 PM,33.8,32.0,93,29.82,15.0,West,6.9,-,N/A,,Overcast,270,2013-11-12 20:00:00
4:12 PM,33.8,30.2,87,29.82,15.0,WNW,8.1,-,N/A,,Overcast,300,2013-11-12 20:12:00
5:00 PM,32.0,28.4,87,29.82,15.0,WNW,8.1,-,N/A,,Overcast,300,2013-11-12 21:00:00
6:00 PM,32.0,28.4,87,29.84,15.0,West,5.8,-,N/A,,Overcast,270,2013-11-12 22:00:00
7:00 PM,30.2,24.8,80,29.85,15.0,West,9.2,20.7,N/A,,Overcast,280,2013-11-12 23:00:00
8:00 PM,29,21,63,29.86,15,West,12.7,,,,Partly Cloudy,280,2013-11-13 00:00:00
8:00 PM,28.4,21.2,74,29.86,15.0,West,13.8,21.9,N/A,,Overcast,280,2013-11-13 00:00:00
9:00 PM,28.4,19.4,69,29.87,15.0,West,10.4,17.3,N/A,,Mostly Cloudy,280,2013-11-13 01:00:00
10:00 PM,28.4,19.4,69,29.87,15.0,West,8.1,-,N/A,,Overcast,270,2013-11-13 02:00:00
11:00 PM,28.4,17.6,64,29.87,15.0,West,10.4,-,N/A,,Overcast,270,2013-11-13 03:00:00